SL-16 R/B (24298 NORAD) Tracking and Keplerian Element Data

This shows tracking and keplerian element data for the satellite.

Feedback or suggestion? Click here.




ElementValue
Catalog24298
NameSL-16 R/B
Epoch Orbit12701
Epoch Day195.91206877
Epoch Year2018
RAAN314.2847
Inclination70.8342
Eccentricity0.0017502
Argument of Perigee310.9233
Mean Anonmoly49.037
Mean Motion14.12424031
Decay Rate-1.67E-06
L11 24298U 96051B 18195.91206877 -.00000167 00000-0 -63804-4 0 9991
L22 24298 70.8342 314.2847 0017502 310.9233 49.0370 14.12424031127012

Live tracking and technical data element details for SL-16 R/B (NORAD 24298). SL-16 R/B can be tracked NOW for your location showing map with azimuth and elevation plus other details from your city location.

Track the satellite on the map from your city or location and see movement details for azimuth, elevation, latitude, longitude, range, height, and movement on the map or in text.







IsCatalogInMostPopularTable: catalog: 24298, numindb: 30
Update: records affected: 1



GetName: 24298 SL-16 R/B

Hit Count: updated at: Sun, 15 Jul 2018 23:12:31 GMT